THY211 EDDH-EDDM

Flight info

Callsign THY211
Flight time 0h 55m
Altitude 35000
Route AMLUH2G/33 AMLUH M852 DENIX DCT ZUCKA DCT SODRO/N0482F310 T703 LULAR/N0481F300 T105 LANDU LANDU2B
Aircraft B77W/H-SDE1E2E3FGHIJ2J3J4J5M1RWXY/LB1D1

Departure

Time 2026-05-07 18:29
Airport Hamburg Helmut Schmidt Airport (EDDH)

Arrival

Time 2026-05-07 19:24
Airport Munich Airport (EDDM)
Time Latitude Longitude Altitude Speed Heading
2026-05-07 17:55 53.62944 10.00285 49 ft 0 kts 122°
2026-05-07 18:16 53.62946 10.00279 53 ft 3 kts 122°
2026-05-07 18:16 53.62960 10.00240 48 ft 4 kts 122°
2026-05-07 18:16 53.62974 10.00204 49 ft 2 kts 122°
2026-05-07 18:17 53.62988 10.00174 47 ft 4 kts 150°
2026-05-07 18:17 53.63011 10.00167 46 ft 4 kts 199°
2026-05-07 18:17 53.63027 10.00179 47 ft 0 kts 213°
2026-05-07 18:20 53.63024 10.00176 46 ft 2 kts 213°
2026-05-07 18:20 53.63010 10.00160 46 ft 5 kts 213°
2026-05-07 18:20 53.62980 10.00128 49 ft 0 kts 213°
2026-05-07 18:21 53.62977 10.00125 49 ft 0 kts 213°
2026-05-07 18:21 53.62967 10.00113 50 ft 4 kts 213°
2026-05-07 18:21 53.62932 10.00076 47 ft 7 kts 212°
2026-05-07 18:21 53.62887 10.00047 48 ft 7 kts 179°
2026-05-07 18:22 53.62856 10.00064 48 ft 7 kts 158°
2026-05-07 18:22 53.62824 10.00090 47 ft 8 kts 153°
2026-05-07 18:22 53.62758 10.00148 49 ft 8 kts 153°
2026-05-07 18:22 53.62705 10.00194 50 ft 9 kts 153°
2026-05-07 18:23 53.62653 10.00238 47 ft 7 kts 153°
2026-05-07 18:23 53.62627 10.00256 49 ft 0 kts 163°
2026-05-07 18:23 53.62627 10.00257 49 ft 0 kts 162°
2026-05-07 18:24 53.62619 10.00260 50 ft 3 kts 165°
2026-05-07 18:24 53.62588 10.00247 49 ft 7 kts 216°
2026-05-07 18:24 53.62579 10.00224 46 ft 0 kts 242°
2026-05-07 18:27 53.62578 10.00219 51 ft 3 kts 242°
2026-05-07 18:27 53.62544 10.00106 45 ft 13 kts 250°
2026-05-07 18:27 53.62572 10.00005 46 ft 0 kts 331°
2026-05-07 18:28 53.62590 9.99989 50 ft 15 kts 331°
2026-05-07 18:28 53.62904 9.99715 49 ft 94 kts 333°
2026-05-07 18:28 53.63727 9.99018 54 ft 168 kts 336°
2026-05-07 18:28 53.64841 9.98070 588 ft 182 kts 335°
2026-05-07 18:29 53.65979 9.97076 1491 ft 186 kts 336°
2026-05-07 18:29 53.67163 9.96051 2158 ft 202 kts 335°
2026-05-07 18:29 53.68478 9.94945 2701 ft 216 kts 341°
2026-05-07 18:29 53.69986 9.94559 3162 ft 231 kts
2026-05-07 18:30 53.71686 9.94672 3620 ft 252 kts
2026-05-07 18:30 53.73343 9.95629 4290 ft 257 kts 38°
2026-05-07 18:30 53.74432 9.97952 5306 ft 253 kts 69°
2026-05-07 18:30 53.74694 10.00879 6287 ft 256 kts 95°
2026-05-07 18:31 53.74234 10.03822 7082 ft 266 kts 113°
2026-05-07 18:31 53.73369 10.06621 7930 ft 272 kts 118°
2026-05-07 18:31 53.72391 10.09390 8789 ft 278 kts 120°
2026-05-07 18:31 53.71394 10.12205 9725 ft 281 kts 119°
2026-05-07 18:32 53.70401 10.15090 10502 ft 289 kts 119°
2026-05-07 18:32 53.69350 10.18144 10833 ft 312 kts 123°
2026-05-07 18:32 53.67780 10.20760 11000 ft 338 kts 150°
2026-05-07 18:32 53.65498 10.22167 11220 ft 362 kts 165°
2026-05-07 18:33 53.63012 10.23220 11945 ft 375 kts 165°
2026-05-07 18:33 53.60459 10.24330 12970 ft 382 kts 165°
2026-05-07 18:33 53.57877 10.25477 14081 ft 387 kts 165°
2026-05-07 18:33 53.55258 10.26658 15066 ft 392 kts 165°
2026-05-07 18:34 53.52602 10.27867 16038 ft 398 kts 165°
2026-05-07 18:34 53.49908 10.29099 17010 ft 404 kts 165°
2026-05-07 18:34 53.47180 10.30349 17990 ft 410 kts 165°
2026-05-07 18:34 53.44403 10.31621 18858 ft 416 kts 165°
2026-05-07 18:35 53.41593 10.32904 19717 ft 421 kts 165°
2026-05-07 18:35 53.38753 10.34186 20553 ft 425 kts 166°
2026-05-07 18:35 53.35879 10.35475 21378 ft 431 kts 166°
2026-05-07 18:35 53.32966 10.36778 22177 ft 436 kts 166°
2026-05-07 18:36 53.30014 10.38096 22966 ft 441 kts 166°
2026-05-07 18:36 53.27033 10.39425 23736 ft 446 kts 166°
2026-05-07 18:36 53.24020 10.40767 24203 ft 450 kts 166°
2026-05-07 18:36 53.20981 10.42118 24809 ft 454 kts 166°
2026-05-07 18:37 53.17915 10.43481 25487 ft 457 kts 166°
2026-05-07 18:37 53.14829 10.44853 26154 ft 460 kts 166°
2026-05-07 18:37 53.11710 10.46144 26754 ft 464 kts 169°
2026-05-07 18:37 53.08524 10.47155 27325 ft 468 kts 170°
2026-05-07 18:38 53.05310 10.48142 27895 ft 472 kts 170°
2026-05-07 18:38 53.02067 10.49132 28437 ft 476 kts 170°
2026-05-07 18:38 52.98797 10.50134 28968 ft 479 kts 170°
2026-05-07 18:38 52.95510 10.51144 29457 ft 483 kts 170°
2026-05-07 18:39 52.92197 10.52166 29914 ft 486 kts 170°
2026-05-07 18:39 52.88871 10.53194 30414 ft 486 kts 169°
2026-05-07 18:39 52.85546 10.54222 30961 ft 485 kts 169°
2026-05-07 18:39 52.82236 10.55244 31503 ft 483 kts 169°
2026-05-07 18:40 52.78937 10.56261 32032 ft 483 kts 169°
2026-05-07 18:40 52.75636 10.57277 32509 ft 482 kts 169°
2026-05-07 18:40 52.72338 10.58291 33002 ft 482 kts 169°
2026-05-07 18:40 52.69038 10.59303 33493 ft 481 kts 169°
2026-05-07 18:41 52.65745 10.60311 33951 ft 482 kts 169°
2026-05-07 18:41 52.62450 10.61318 34369 ft 481 kts 169°
2026-05-07 18:41 52.59162 10.62322 34756 ft 481 kts 169°
2026-05-07 18:41 52.55917 10.63311 35096 ft 481 kts 169°
2026-05-07 18:42 52.52565 10.64331 35099 ft 486 kts 169°
2026-05-07 18:42 52.45978 10.66330 35102 ft 482 kts 169°
2026-05-07 18:43 52.39415 10.68315 35100 ft 479 kts 169°
2026-05-07 18:43 52.32869 10.70290 35105 ft 478 kts 170°
2026-05-07 18:44 52.26319 10.72260 35105 ft 479 kts 170°
2026-05-07 18:44 52.19763 10.74226 35106 ft 480 kts 170°
2026-05-07 18:45 52.13187 10.76191 35103 ft 481 kts 170°
2026-05-07 18:45 52.06608 10.78152 35103 ft 481 kts 170°
2026-05-07 18:46 52.00014 10.80111 35103 ft 482 kts 170°
2026-05-07 18:46 51.93416 10.82065 35104 ft 482 kts 170°
2026-05-07 18:47 51.86819 10.84012 35101 ft 482 kts 170°
2026-05-07 18:47 51.80227 10.85949 35106 ft 481 kts 170°
2026-05-07 18:48 51.73636 10.87883 35102 ft 481 kts 170°
2026-05-07 18:48 51.67125 10.90345 35097 ft 482 kts 162°
2026-05-07 18:49 51.60977 10.94624 35106 ft 482 kts 154°
2026-05-07 18:49 51.54978 10.99460 35103 ft 482 kts 154°
2026-05-07 18:50 51.48968 11.04249 35098 ft 482 kts 154°
2026-05-07 18:50 51.42942 11.08986 35097 ft 482 kts 154°
2026-05-07 18:51 51.36907 11.13699 35095 ft 483 kts 155°
2026-05-07 18:51 51.30860 11.18406 35097 ft 483 kts 155°
2026-05-07 18:52 51.24813 11.23103 35089 ft 484 kts 155°
2026-05-07 18:52 51.18755 11.27795 35095 ft 484 kts 155°
2026-05-07 18:53 51.12691 11.32478 35089 ft 485 kts 155°
2026-05-07 18:53 51.06625 11.37149 35094 ft 485 kts 155°
2026-05-07 18:54 51.00551 11.41812 35086 ft 485 kts 155°
2026-05-07 18:54 50.94477 11.46462 35093 ft 485 kts 155°
2026-05-07 18:55 50.88398 11.51102 35084 ft 485 kts 155°
2026-05-07 18:55 50.82317 11.55728 35082 ft 485 kts 155°
2026-05-07 18:56 50.76236 11.60343 35093 ft 485 kts 155°
2026-05-07 18:56 50.70143 11.64952 35080 ft 485 kts 155°
2026-05-07 18:57 50.64050 11.69548 35079 ft 485 kts 155°
2026-05-07 18:57 50.57946 11.74137 34710 ft 491 kts 155°
2026-05-07 18:57 50.54864 11.76447 33805 ft 500 kts 155°
2026-05-07 18:58 50.51684 11.78828 32812 ft 499 kts 155°
2026-05-07 18:58 50.48616 11.81124 32348 ft 490 kts 155°
2026-05-07 18:58 50.45486 11.83455 32136 ft 493 kts 156°
2026-05-07 18:58 50.42351 11.85650 31776 ft 493 kts 157°
2026-05-07 18:59 50.39255 11.87723 31547 ft 487 kts 157°
2026-05-07 18:59 50.36150 11.89780 31328 ft 483 kts 157°
2026-05-07 18:59 50.33060 11.91837 31121 ft 482 kts 157°
2026-05-07 18:59 50.29984 11.93904 30913 ft 480 kts 157°
2026-05-07 19:00 50.26916 11.95976 30702 ft 479 kts 156°
2026-05-07 19:00 50.23858 11.98042 30500 ft 478 kts 157°
2026-05-07 19:00 50.20807 12.00097 30309 ft 477 kts 157°
2026-05-07 19:00 50.17722 12.02169 30103 ft 477 kts 157°
2026-05-07 19:01 50.14716 12.04183 29874 ft 476 kts 157°
2026-05-07 19:01 50.11672 12.06219 29648 ft 476 kts 157°
2026-05-07 19:01 50.08622 12.08176 29379 ft 473 kts 161°
2026-05-07 19:01 50.05488 12.09650 28755 ft 468 kts 167°
2026-05-07 19:02 50.02304 12.10519 28150 ft 461 kts 175°
2026-05-07 19:02 49.99158 12.11061 27872 ft 451 kts 175°
2026-05-07 19:02 49.96053 12.11635 27613 ft 450 kts 174°
2026-05-07 19:02 49.92919 12.12246 27365 ft 457 kts 174°
2026-05-07 19:03 49.89756 12.12881 27140 ft 459 kts 174°
2026-05-07 19:03 49.86604 12.13523 27079 ft 456 kts 174°
2026-05-07 19:03 49.83463 12.14166 27036 ft 455 kts 174°
2026-05-07 19:03 49.80323 12.14807 27037 ft 455 kts 174°
2026-05-07 19:04 49.77181 12.15446 27027 ft 456 kts 174°
2026-05-07 19:04 49.74030 12.16084 27042 ft 457 kts 174°
2026-05-07 19:04 49.70878 12.16721 27029 ft 457 kts 174°
2026-05-07 19:04 49.67736 12.17354 26939 ft 454 kts 174°
2026-05-07 19:05 49.64619 12.17982 26442 ft 450 kts 174°
2026-05-07 19:05 49.61524 12.18604 25858 ft 446 kts 174°
2026-05-07 19:05 49.59492 12.19013 25469 ft 444 kts 174°
2026-05-07 19:05 49.55409 12.19832 24678 ft 441 kts 175°
2026-05-07 19:06 49.52376 12.20439 24069 ft 438 kts 175°
2026-05-07 19:06 49.46429 12.21629 23195 ft 426 kts 175°
2026-05-07 19:06 49.43497 12.22213 22486 ft 426 kts 175°
2026-05-07 19:07 49.41547 12.22601 22039 ft 425 kts 175°
2026-05-07 19:07 49.38616 12.23183 21415 ft 423 kts 175°
2026-05-07 19:07 49.35698 12.23760 20980 ft 424 kts 175°
2026-05-07 19:07 49.31797 12.24534 20749 ft 419 kts 175°
2026-05-07 19:08 49.29887 12.24914 20662 ft 416 kts 175°
2026-05-07 19:08 49.27026 12.25483 20481 ft 413 kts 175°
2026-05-07 19:08 49.24177 12.26047 20246 ft 412 kts 175°
2026-05-07 19:08 49.21332 12.26609 19996 ft 412 kts 175°
2026-05-07 19:09 49.18494 12.27169 19766 ft 411 kts 175°
2026-05-07 19:09 49.15675 12.27725 19525 ft 403 kts 175°
2026-05-07 19:09 49.12916 12.28271 18940 ft 398 kts 175°
2026-05-07 19:09 49.10176 12.28810 18184 ft 397 kts 175°
2026-05-07 19:10 49.07441 12.29346 17353 ft 396 kts 175°
2026-05-07 19:10 49.04723 12.29879 16671 ft 391 kts 175°
2026-05-07 19:10 49.02042 12.30406 16062 ft 386 kts 175°
2026-05-07 19:10 48.99395 12.30925 15463 ft 381 kts 175°
2026-05-07 19:11 48.96781 12.31437 14861 ft 377 kts 175°
2026-05-07 19:11 48.94193 12.31942 14266 ft 373 kts 175°
2026-05-07 19:11 48.91628 12.32443 13674 ft 370 kts 175°
2026-05-07 19:11 48.89090 12.32938 13050 ft 366 kts 175°
2026-05-07 19:12 48.86577 12.33427 12437 ft 363 kts 175°
2026-05-07 19:12 48.84082 12.33913 11852 ft 359 kts 176°
2026-05-07 19:12 48.81614 12.34217 11348 ft 355 kts 182°
2026-05-07 19:12 48.79123 12.34246 11177 ft 359 kts 184°
2026-05-07 19:13 48.76654 12.34214 11071 ft 348 kts 184°
2026-05-07 19:13 48.74286 12.34183 11058 ft 332 kts 184°
2026-05-07 19:13 48.72029 12.34158 11052 ft 316 kts 184°
2026-05-07 19:13 48.69896 12.34140 11013 ft 307 kts 184°
2026-05-07 19:14 48.67777 12.34127 10822 ft 293 kts 184°
2026-05-07 19:14 48.65770 12.34121 10363 ft 286 kts 184°
2026-05-07 19:14 48.63768 12.34115 9926 ft 288 kts 184°
2026-05-07 19:14 48.61809 12.34112 9662 ft 280 kts 184°
2026-05-07 19:15 48.59876 12.34103 9108 ft 277 kts 186°
2026-05-07 19:15 48.57968 12.33782 8480 ft 277 kts 193°
2026-05-07 19:15 48.56058 12.33276 8098 ft 278 kts 194°
2026-05-07 19:15 48.54166 12.32743 7856 ft 274 kts 194°
2026-05-07 19:16 48.52299 12.32210 7563 ft 273 kts 194°
2026-05-07 19:16 48.50436 12.31671 7234 ft 273 kts 194°
2026-05-07 19:16 48.48596 12.31131 6859 ft 267 kts 194°
2026-05-07 19:16 48.46781 12.30591 6482 ft 264 kts 194°
2026-05-07 19:17 48.45035 12.29907 6071 ft 255 kts 208°
2026-05-07 19:17 48.43678 12.28326 5667 ft 243 kts 230°
2026-05-07 19:17 48.42614 12.26405 5295 ft 236 kts 233°
2026-05-07 19:17 48.41617 12.24463 4909 ft 232 kts 234°
2026-05-07 19:18 48.40652 12.22536 4503 ft 229 kts 234°
2026-05-07 19:18 48.39778 12.20547 4109 ft 227 kts 250°
2026-05-07 19:18 48.39475 12.18220 4031 ft 232 kts 264°
2026-05-07 19:18 48.39279 12.15789 4002 ft 233 kts 263°
2026-05-07 19:19 48.39083 12.13420 3978 ft 223 kts 263°
2026-05-07 19:19 48.38902 12.11094 3993 ft 226 kts 264°
2026-05-07 19:19 48.38728 12.08818 3965 ft 209 kts 264°
2026-05-07 19:19 48.38569 12.06742 3956 ft 192 kts 264°
2026-05-07 19:20 48.38419 12.04762 4029 ft 188 kts 264°
2026-05-07 19:20 48.38273 12.02861 3995 ft 178 kts 264°
2026-05-07 19:20 48.38135 12.01046 3988 ft 175 kts 264°
2026-05-07 19:20 48.37993 11.99185 3746 ft 181 kts 264°
2026-05-07 19:21 48.37850 11.97316 3506 ft 179 kts 264°
2026-05-07 19:21 48.37709 11.95483 3254 ft 172 kts 264°
2026-05-07 19:21 48.37577 11.93762 3021 ft 159 kts 265°
2026-05-07 19:21 48.37456 11.92169 2842 ft 149 kts 265°
2026-05-07 19:22 48.37339 11.90644 2632 ft 146 kts 265°
2026-05-07 19:22 48.37223 11.89125 2452 ft 146 kts 265°
2026-05-07 19:22 48.37109 11.87629 2227 ft 145 kts 265°
2026-05-07 19:22 48.36994 11.86131 2020 ft 144 kts 265°
2026-05-07 19:23 48.36879 11.84638 1832 ft 144 kts 265°
2026-05-07 19:23 48.36765 11.83148 1666 ft 144 kts 265°
2026-05-07 19:23 48.36654 11.81654 1505 ft 144 kts 265°
2026-05-07 19:23 48.36552 11.80302 1483 ft 108 kts 263°
2026-05-07 19:24 48.36483 11.79453 1487 ft 55 kts 263°
2026-05-07 19:24 48.36437 11.79031 1478 ft 35 kts 248°
2026-05-07 19:24 48.36323 11.78750 1478 ft 24 kts 234°
2026-05-07 19:24 48.36261 11.78625 1476 ft 12 kts 232°
2026-05-07 19:25 48.36241 11.78585 1478 ft 2 kts 232°
2026-05-07 19:25 48.36240 11.78582 1478 ft 0 kts 232°
2026-05-07 19:25 48.36238 11.78579 1478 ft 1 kts 232°
2026-05-07 19:25 48.36224 11.78551 1478 ft 6 kts 232°
2026-05-07 19:26 48.36190 11.78484 1477 ft 10 kts 233°
2026-05-07 19:26 48.36142 11.78378 1477 ft 14 kts 243°
2026-05-07 19:26 48.36117 11.78213 1490 ft 18 kts 263°
2026-05-07 19:26 48.36103 11.78009 1481 ft 20 kts 264°
2026-05-07 19:27 48.36086 11.77810 1482 ft 15 kts 263°
2026-05-07 19:27 48.36066 11.77692 1475 ft 12 kts 229°
2026-05-07 19:27 48.35975 11.77676 1480 ft 15 kts 176°
2026-05-07 19:27 48.35857 11.77695 1485 ft 18 kts 173°
2026-05-07 19:28 48.35724 11.77717 1482 ft 20 kts 174°
2026-05-07 19:28 48.35595 11.77736 1477 ft 18 kts 174°
2026-05-07 19:28 48.35476 11.77752 1478 ft 15 kts 175°
2026-05-07 19:28 48.35375 11.77773 1478 ft 15 kts 169°
2026-05-07 19:29 48.35280 11.77794 1477 ft 7 kts 173°
2026-05-07 19:29 48.35229 11.77803 1478 ft 8 kts 173°
2026-05-07 19:29 48.35174 11.77814 1485 ft 8 kts 169°
2026-05-07 19:29 48.35139 11.77870 1475 ft 7 kts 108°
2026-05-07 19:30 48.35128 11.77916 1477 ft 1 kts 117°
2026-05-07 19:30 48.35123 11.77930 1475 ft 2 kts 117°
2026-05-07 19:30 48.35117 11.77948 1475 ft 0 kts 118°